Torna al catalogo

STARLINK-31774

AttivoComunicazioniVLEO
NORAD 59622·PAYLOAD·🇺🇸 United States

Lanciato Apr 28, 2024 da Cape Canaveral Space Force Station

Loading…

Prossimi Passaggi (prossime 24 ore)

TLE

AggiornatoSource: CelesTrak SupGP

Epoca: Sep 14, 2026, 15:06 UTC

1 59622C 24080X   26257.62965278 -.00058848  00000+0 -21321-2 0  2577
2 59622  43.0045  47.5381 0001426 270.8204 215.1943 15.27597589    10

Traccia STARLINK-31774 in tempo reale con AllMySat

Download on the App Store